Flushing, NY

7:00 PM EST on February 08, 2016 (GMT -0500)
La Guardia

Weather History for KLGA - November, 2012

Change the Weather History Date:

Thursday, November 1, 2012

  Actual Average Record
Temperature  
Mean Temperature 48 °F 53 °F  
Max Temperature 53 °F 60 °F 83 °F (1950)
Min Temperature 42 °F 46 °F 37 °F (1976)
Degree Days  
Heating Degree Days 17 12  
Month to date heating degree days 17 12  
Since 1 July heating degree days 199 284  
Cooling Degree Days 0 0  
Month to date cooling degree days 0 0  
Year to date cooling degree days 1511 1213  
Moisture  
Dew Point 37 °F    
Average Humidity 65    
Maximum Humidity 76    
Minimum Humidity 54    
Precipitation  
Precipitation 0.00 in 0.11 in 1.57 in (1988)
Month to date precipitation 0.00 0.11  
Year to date precipitation 31.06 37.87  
Snow  
Snow 0.00 in 0.00 in - ()
Month to date snowfall 0.0 0.0  
Since 1 July snowfall 0.0 0.0  
Snow Depth 0.00 in    
Sea Level Pressure  
Sea Level Pressure 29.59 in    
Wind  
Wind Speed 12 mph (West)    
Max Wind Speed 17 mph    
Max Gust Speed 17 mph    
Visibility 10 miles    
Events      
T = Trace of Precipitation, MM = Missing Value Source: NWS Daily Summary

Daily Weather History Graph

Daily Weather History Graph

Search for Another Location

Airport or City:

Trip Planner

Search our weather history database for the weather conditions in past years. The results will help you decide how hot, cold, wet, or windy it might be!

Date:

Astronomy

Nov. 01, 2012 Rise Set
Actual Time 7:26 AM EDT 5:51 PM EDT
Civil Twilight 6:57 AM EDT 6:19 PM EDT
Nautical Twilight 6:25 AM EDT 6:51 PM EDT
Astronomical Twilight 5:53 AM EDT 7:23 PM EDT
Moon 7:45 PM EDT (11/1) 9:57 AM EDT (11/1)
Length of Visible Light 11h 21m
Length of Day
10h 24m
Waning Gibbous, 93% of the Moon is Illuminated
Nov 1
Waning Gibbous
Nov 6
Last Quarter
Nov 13
New
Nov 20
First Quarter
Nov 28
Full

Hourly Weather History & Observations

Time (EDT) Temp. Windchill Dew Point Humidity Pressure Visibility Wind Dir Wind Speed Gust Speed Precip Events Conditions
12:51 AM 44.8 °F 39.0 °F 36.1 °F 72% 29.59 in 10.0 mi WSW 11.5 mph - N/A   Scattered Clouds
1:51 AM 44.2 °F 38.8 °F 35.8 °F 72% 29.57 in 10.0 mi WSW 10.4 mph - N/A   Mostly Cloudy
2:51 AM 44.1 °F 38.6 °F 36.0 °F 73% 29.57 in 10.0 mi WSW 10.4 mph - N/A   Mostly Cloudy
3:51 AM 43.9 °F 38.3 °F 35.8 °F 73% 29.57 in 10.0 mi WSW 10.4 mph - N/A   Scattered Clouds
4:51 AM 43.7 °F 38.6 °F 35.6 °F 73% 29.57 in 10.0 mi WSW 9.2 mph - N/A   Partly Cloudy
5:51 AM 42.3 °F 36.3 °F 35.2 °F 76% 29.58 in 10.0 mi WSW 10.4 mph - N/A   Partly Cloudy
6:51 AM 43.5 °F 37.9 °F 35.1 °F 72% 29.58 in 10.0 mi WSW 10.4 mph - N/A   Partly Cloudy
7:51 AM 44.2 °F 38.4 °F 36.0 °F 73% 29.59 in 10.0 mi WSW 11.5 mph - N/A   Scattered Clouds
8:51 AM 45.5 °F 39.6 °F 37.8 °F 74% 29.60 in 10.0 mi WSW 12.7 mph - N/A   Mostly Cloudy
9:51 AM 48.6 °F - 40.5 °F 74% 29.60 in 10.0 mi WNW 13.8 mph - N/A   Mostly Cloudy
10:51 AM 50.0 °F - 37.9 °F 63% 29.60 in 10.0 mi West 13.8 mph - N/A   Mostly Cloudy
11:51 AM 51.3 °F - 36.9 °F 58% 29.59 in 10.0 mi WNW 13.8 mph - N/A   Mostly Cloudy
12:51 PM 51.1 °F - 36.0 °F 56% 29.57 in 10.0 mi West 10.4 mph - N/A   Mostly Cloudy
1:51 PM 52.2 °F - 36.5 °F 55% 29.56 in 10.0 mi West 12.7 mph - N/A   Overcast
2:51 PM 51.1 °F - 35.1 °F 54% 29.56 in 10.0 mi West 16.1 mph - N/A   Overcast
3:51 PM 52.9 °F - 36.7 °F 54% 29.57 in 10.0 mi West 13.8 mph - N/A   Overcast
4:51 PM 52.2 °F - 36.3 °F 55% 29.57 in 10.0 mi West 13.8 mph - N/A   Overcast
5:51 PM 50.7 °F - 36.1 °F 57% 29.59 in 10.0 mi West 12.7 mph - N/A   Overcast
6:51 PM 48.9 °F - 35.4 °F 60% 29.60 in 10.0 mi West 11.5 mph - N/A   Mostly Cloudy
7:51 PM 48.9 °F - 36.5 °F 62% 29.61 in 10.0 mi West 13.8 mph - N/A   Mostly Cloudy
8:51 PM 48.2 °F - 37.4 °F 66% 29.61 in 10.0 mi West 11.5 mph - N/A   Mostly Cloudy
9:51 PM 47.5 °F - 39.6 °F 74% 29.62 in 10.0 mi WSW 12.7 mph - N/A   Mostly Cloudy
10:51 PM 47.3 °F - 39.6 °F 74% 29.62 in 10.0 mi West 17.3 mph - N/A   Overcast
11:51 PM 48.2 °F - 37.4 °F 66% 29.62 in 10.0 mi West 9.2 mph - N/A   Overcast